Погода в Стуре

Норвегия     59°46′54″N   5°29′56″E
темп.,
°C
ветер,
м/с
пор.,
м/с
влажн.,
%
обл.,
%
осадки,
мм/ч
давл.,
гПа
погр.,
м
4 марта, чт
чт401:00+2ссз1114700 0.0 1024715
04:00+2с79640 0.0 1024743
07:00+1с67670 0.0 1025505
10:00+1с44620 0.0 1027411
13:00+2с34530 0.0 1027522
16:00+3с57530 0.0 10261150
19:00+2ссз79630 0.0 10261025
22:00+2ссз810660 0.0 1027870
5 марта, пт
пт501:00+2с710650 0.0 1028969
04:00+2с69640 0.0 10271027
07:00+1с476614 0.0 1028753
10:00+1ссв33643 0.0 1028375
13:00+1ююз116312 0.0 1029196
16:00+2ююз117423 0.0 1028141
19:00+2св128349 0.0 1028195
22:00+2ююв017713 0.0 1029194
6 марта, сб
сб601:00+1вюв229757 0.2 1029126
04:00+3зсз2890100 0.3 1027601
07:00+4сз588196 0.6 1026431
10:00+4сз467778 0.1 1024451
13:00+3юз128689 0.1 1023330
16:00+4зсз71392100 2.4 1020658
19:00+5зсз61187100 3.4 1019301
22:00+5сз71090100 0.6 1018361
7 марта, вс
вс701:00+3ссз478891 0.7 1018393
04:00+2ссз687451 0.0 1017740
07:00+1ссз8117132 0.0 1018675
10:00+1с57661 0.0 1019579
13:00+1ссв12607 0.0 1020515
16:00+1с115815 0.0 1019407
19:00+1ссв226145 0.0 1020281
22:00+1в2264100 0.0 1022250
8 марта, пн
пн801:00+1юв587371 0.0 1022640
04:00+1вюв447298 0.1 1022371
07:00+1юв446999 0.1 1022229
10:00+1юв3464100 0.0 1021318
13:00+2юв235996 0.0 1020539
16:00+3ю236471 0.0 1019493
19:00+3ююв336674 0.0 1018176
22:00+2юв356892 0.0 1017233